Regional Weather Roundup
Issued by NWS Kansas City/Pleasant Hill, MO

Home | Current Version | Previous Version | Graphics & Text | Print | Product List | Glossary Off
Versions: 1 2 3 4 5 6 7 8 9 10 11 12 13 14 15 16 17 18 19 20 21 22 23 24 25 26 27 28

000
ASUS43 KEAX 190810
RWREAX

WEATHER ROUNDUP FOR EASTERN KANSAS AND NORTHWEST MISSOURI
NATIONAL WEATHER SERVICE KANSAS CITY/PLEASANT HILL MO
300 AM CDT TUE SEP 19 2017

KSZ040-057-103>105-MOZ028-029-037-043-190900-
...KANSAS CITY METROPOLITAN AREA...

CITY           SKY/WX    TMP DP  RH WIND       PRES   REMARKS
K.C. INTL      MOCLDY    67  67 100 SE7       29.91F FOG
K.C. DOWNTOWN  MOCLDY    69  68  96 SE7       29.90F
LEES SUMMIT    CLOUDY    67  67 100 SE5       29.91F FOG
OLATHE - IXD   MOCLDY    66  65  96 SE6       29.91F
OLATHE - OJC   MOCLDY    65  65 100 S5        29.91F FOG
LAWRENCE       MOCLDY    67  67 100 NE3       29.89F

$$

MOZ001>008-011>017-020>025-030>033-038>040-044>046-053-054-190900-
...NORTHERN AND CENTRAL MISSOURI...

CITY           SKY/WX    TMP DP  RH WIND       PRES   REMARKS
ST. JOSEPH     CLOUDY    67  67 100 SE7       29.90F
MOSBY          FOG       64  64 100 CALM      29.91F VSB 3/4
WARRENSBURG    FOG       64  64 100 CALM      29.91F VSB 1/4
WHITEMAN AFB   FOG       65  65 100 SE2       29.91F VSB 1/4
CLINTON        FOG       63  63 100 CALM      29.92F VSB 1/4
SEDALIA        FOG       64  64 100 SE5       29.94S VSB 1/2
WARSAW         NOT AVBL
CHILLICOTHE      N/A     62  62 100 CALM      29.93F
KIRKSVILLE     FOG       64  64 100 CALM      29.94F VSB 1/4

$$

MOZ041-047>049-056>058-063>065-088>090-097-190900-
...EASTERN AND SOUTHERN MISSOURI...

CITY           SKY/WX    TMP DP  RH WIND       PRES   REMARKS
ST. LOUIS INTL PTCLDY    68  68 100 CALM      29.95R
SPIRIT OF STL  MOCLDY    66  66 100 CALM      29.94R
COLUMBIA       FOG       65  65 100 E3        29.95R VSB 1/2
JEFFERSON CITY FOG       66  64  93 CALM      29.93S VSB 1/4
ROLLA          CLEAR     66  66 100 SW6       29.96S FOG
OSAGE BEACH    FOG       64  64 100 CALM      29.95S VSB 1/4
SPRINGFIELD    CLEAR     66  66 100 SE6       29.94S FOG
BRANSON        FOG       64  64 100 CALM      29.94F VSB 1/2
JOPLIN         CLEAR     67  67 100 SE3       29.92F
WEST PLAINS    FOG       64  63  96 CALM      29.96S VSB 3/4

$$

IAZ060-094-KSZ022-034>040-054-083-096-NEZ052-066-093-190900-
...KANSAS...SOUTHEAST NEBRASKA AND IOWA...

CITY           SKY/WX    TMP DP  RH WIND       PRES   REMARKS
TOPEKA         PTCLDY    68  67  96 E5        29.87F
MANHATTAN      CLEAR     72  66  81 S8        29.85F
EMPORIA        PTCLDY    69  65  86 S9        29.88F
CHANUTE        PTCLDY    69  66  90 S6        29.90F
WICHITA        PTCLDY    68  67  96 S7        29.87F
OMAHA          CLOUDY    67  64  90 SE10      29.86F
LINCOLN        PTCLDY    67  65  93 SE8       29.85F
FALLS CITY     PTCLDY    66  65  96 SE6       29.87F FOG
LAMONI         CLOUDY    65  64  97 SW7       29.92F
DES MOINES     FOG       64  64 100 SE8       29.92S VSB 1/8

$$





USA.gov is the U.S. government's official web portal to all federal, state and local government web resources and services.